DMSP 5D-2 F13 DEB, 40414

Orbit data source: Space-Track

DMSP 5D-2 F13 DEB, 40414 is space debris in SSO originally from a launch on Fri, 24 Mar 1995 UTC launched from the Air Force Western Test Range (AFWTR). Debris objects in space refer to the collection of defunct objects orbiting the Earth. Examples of debris include non-operational satellites, rocket bodies, and fragments generated from explosions, collisions, or faulty payload assembly.

Loading next visibility...
Identifier
40414, 1995-015AB
Orbit
SSO
Last TLE update
1 day ago
Origin
Manufacturer
Unknown
Mission
Spacecraft
Bus & Motor
Unknown
Mass
Unknown
Launch date (UTC)
1995-03-24 (30 years ago)
Launch vehicle
Unknown
Launch site
Air Force Western Test Range (AFWTR)
Object type
Payload
Rocket body
Debris
Shape & HBR
Unknown
Radar Cross Section
Small (<0.1 m²)

Expand to show TLE details & history

TLE from 1 day ago
0 DMSP 5D-2 F13 DEB
1 40414U 95015AB  25128.01424085  .00002652  00000-0  10361-2 0  9993
2 40414  98.6556 153.0619 0012264  44.0185 316.1972 14.30388316529312
Epoch: 2025-05-08T00:20Z
Definitive object data (Epoch: 2025-05-08T00:20:30.409Z)
Latitude
-0°
Longitude
-78.15562°
Altitude
787.022 km
Speed
7.464 km/s
True Right ascension
10h 12m 14s
True Declination
0° 00' 00"
Sunlit
Object was in daylight at TLE epoch
Visualization TLE readout
Latitude
-48.38814°
Longitude
93.25575°
Altitude
817.827 km
Speed
7.439 km/s
Apparent Right ascension
23h 53m 31s
Apparent Declination
-49° 24' 14"
Sunlit
Object is in daylight
Visualization observer readout
Local Sidereal Time
14:05:38
Azimuth
123.224° SE
Elevation
-64.912°
Doppler factor
1
Orbital elements
Apogee altitude
796.363 km
Perigee altitude
778.787 km
Semi-major axis
7,165.712 km
Eccentricity
0.0012264
Inclination
98.6556°
RAAN
153.0619°
Arg. of periapsis
44.0185°
True anomaly
316.09982°
Mean anomaly
316.1972°
Eccentric anomaly
316.14852°
Mean motion
3.57811 °/min
BSTAR
0.0010361
Orbital period
100.61 mins
Loading maneuver chart data...
Loading SW <> Apogee altitude chart data...

DMSP 5D-2 F13 DEB Visibility forecast

Observer location: undefined°, undefined°

Span
Click to sort rows by Start time (UTC) header in descending order
Start Az.
Max El. time (UTC)
Max El. Az.
Max El.
End time (UTC)
End Az.
8 mins2025-05-09 13:51:53.337Z35.174° NE2025-05-09 13:55:53.337Z96.985° ESE30.584°2025-05-09 13:59:53.337Z159.878° S
6 mins2025-05-09 15:32:53.337Z332.27° NNW2025-05-09 15:34:53.337Z300.033° NW24.184°2025-05-09 15:38:53.337Z242.02° WSW
8 mins2025-05-10 01:09:53.337Z140.058° SSE2025-05-10 01:12:53.337Z88.664° E37.464°2025-05-10 01:17:53.337Z358.109° N
5 mins2025-05-10 02:50:53.337Z237.737° WSW2025-05-10 02:52:53.337Z264.915° W17.172°2025-05-10 02:55:53.337Z304.187° NW
|